All
Ingalls Fld Airport (Hot Springs, VA) HSP Weather
|
Hot Springs, VA (KHSP)
Clear skies
Light winds |
|
68 °F |
There is no TAF data available at HSP or any nearby airports.
Recent HSP METAR history
| Date | Time (EDT) | Flight Rules | Wind Dir. | Speed | Type | Height AGL (ft) | Visibility | Temp (°C) | Temp (°F) | Dew Point (°C) | Dew Point (°F) | Rel. Humid. | Pressure | Density Altitude | Remarks |
|---|---|---|---|---|---|---|---|---|---|---|---|---|---|---|---|
| 04-Sep | 07:55PM | VFR | 260° | 10 kt | 10 miles | 20° | 68° | 18° | 64° | 83% | 30.12 in Hg | 4,905 ft | |||
| 04-Sep | 07:35PM | VFR | 270° | 10 kt | 10 miles | 20° | 68° | 17° | 62° | 83% | 30.12 in Hg | 4,905 ft | |||
| 04-Sep | 07:15PM | VFR | 280° | 8 kt | 10 miles | 19° | 66° | 17° | 62° | 85% | 30.13 in Hg | 4,775 ft | |||
| 04-Sep | 06:55PM | VFR | 270° | 10 kt | 10 miles | 19° | 66° | 17° | 62° | 87% | 30.12 in Hg | 4,785 ft | |||
| 04-Sep | 06:35PM | VFR | 280° | 7 kt | 10 miles | 19° | 66° | 17° | 62° | 88% | 30.14 in Hg | 4,765 ft | |||
| 04-Sep | 06:15PM | VFR | 280° | 8 kt | 10 miles | 19° | 66° | 17° | 62° | 85% | 30.16 in Hg | 4,745 ft | |||
| 04-Sep | 05:55PM | VFR | 290° | 11 kt | 10 miles |
20° | 68° | 16° | 60° | 82% | 30.16 in Hg | 4,865 ft | Wind gusting to 20 KT | ||
| 04-Sep | 05:35PM | IFR | 350° | 10 kt | 1.75 miles |
19° | 66° | 18° | 64° | 90% | 30.16 in Hg | 4,745 ft | |||
| 04-Sep | 05:15PM | VFR | 290° | 7 kt | 10 miles | 26° | 78° | 19° | 66° | 63% | 30.15 in Hg | 5,595 ft | |||
| 04-Sep | 04:55PM | VFR | 290° | 6 kt | 10 miles | 27° | 80° | 19° | 66° | 63% | 30.16 in Hg | 5,705 ft | |||
| 04-Sep | 04:35PM | VFR | 280° | 6 kt | 10 miles | 27° | 80° | 19° | 66° | 62% | 30.15 in Hg | 5,715 ft | |||
| 04-Sep | 04:15PM | VFR | 270° | 10 kt | 10 miles | 28° | 82° | 19° | 66° | 59% | 30.14 in Hg | 5,845 ft | |||
| 04-Sep | 03:55PM | VFR | 260° | 9 kt | 10 miles | 28° | 82° | 19° | 66° | 57% | 30.15 in Hg | 5,835 ft | |||
| 04-Sep | 03:35PM | VFR | 250° | 9 kt | 10 miles | 28° | 82° | 19° | 66° | 57% | 30.16 in Hg | 5,825 ft | |||
| 04-Sep | 03:15PM | VFR | 240° | 10 kt | 10 miles | 28° | 82° | 19° | 66° | 59% | 30.16 in Hg | 5,825 ft | Wind gusting to 14 KT | ||
| 04-Sep | 02:55PM | VFR | 270° | 8 kt | 10 miles | 28° | 82° | 19° | 66° | 59% | 30.16 in Hg | 5,825 ft | |||
| 04-Sep | 02:35PM | VFR | 280° | 7 kt | 10 miles | 27° | 80° | 20° | 68° | 63% | 30.17 in Hg | 5,695 ft | |||
| 04-Sep | 02:15PM | VFR | 300° | 5 kt | 10 miles | 25° | 77° | 19° | 66° | 70% | 30.18 in Hg | 5,445 ft | |||
| 04-Sep | 01:55PM | VFR | 320° | 5 kt | 10 miles | 26° | 78° | 20° | 68° | 67% | 30.19 in Hg | 5,555 ft | |||
| 04-Sep | 01:35PM | VFR | 310° | 5 kt | 10 miles | 27° | 80° | 20° | 68° | 66% | 30.20 in Hg | 5,665 ft | |||
| 04-Sep | 01:15PM | VFR | 320° | 5 kt | 10 miles | 27° | 80° | 21° | 69° | 66% | 30.20 in Hg | 5,665 ft | |||
| 04-Sep | 12:55PM | VFR | 280° | 7 kt | 10 miles | 27° | 80° | 21° | 69° | 70% | 30.20 in Hg | 5,665 ft | |||
| 04-Sep | 12:35PM | VFR | 270° | 7 kt | 10 miles | 27° | 80° | 21° | 69° | 70% | 30.21 in Hg | 5,655 ft | |||
| 04-Sep | 12:15PM | VFR | 290° | 7 kt | 10 miles | 27° | 80° | 21° | 69° | 71% | 30.21 in Hg | 5,655 ft |
Login
| Your browser is unsupported. upgrade your browser |
